TimePDT,TemperatureF,Dew PointF,Humidity,Sea Level PressureIn,VisibilityMPH,Wind Direction,Wind SpeedMPH,Gust SpeedMPH,PrecipitationIn,Events,Conditions,WindDirDegrees,DateUTC
12:15 AM,48.2,48.2,100,30.09,6.0,North,4.6,-,N/A,,Clear,350,2013-05-04 07:15:00
12:35 AM,48.2,48.2,100,30.10,6.0,Calm,Calm,-,N/A,,Clear,0,2013-05-04 07:35:00
12:55 AM,46.4,46.4,100,30.10,5.0,Calm,Calm,-,N/A,,Clear,0,2013-05-04 07:55:00
1:15 AM,46.4,46.4,100,30.09,3.0,North,3.5,-,N/A,,Clear,350,2013-05-04 08:15:00
1:35 AM,46.4,46.4,100,30.08,3.0,Calm,Calm,-,N/A,,Clear,0,2013-05-04 08:35:00
1:55 AM,46.4,46.4,100,30.08,4.0,Calm,Calm,-,N/A,,Mostly Cloudy,0,2013-05-04 08:55:00
2:15 AM,46.4,44.6,93,30.07,5.0,Calm,Calm,-,N/A,,Scattered Clouds,0,2013-05-04 09:15:00
2:35 AM,46.4,46.4,100,30.06,4.0,Calm,Calm,-,N/A,,Clear,0,2013-05-04 09:35:00
2:55 AM,46.4,44.6,93,30.06,4.0,Calm,Calm,-,N/A,,Clear,0,2013-05-04 09:55:00
3:15 AM,44.6,42.8,93,30.06,5.0,Calm,Calm,-,N/A,,Clear,0,2013-05-04 10:15:00
3:35 AM,44.6,44.6,100,30.05,5.0,Calm,Calm,-,N/A,,Clear,0,2013-05-04 10:35:00
3:55 AM,46.4,44.6,93,30.05,7.0,Calm,Calm,-,N/A,,Clear,0,2013-05-04 10:55:00
4:15 AM,46.4,46.4,100,30.04,6.0,Calm,Calm,-,N/A,,Clear,0,2013-05-04 11:15:00
4:35 AM,46.4,46.4,100,30.04,10.0,Calm,Calm,-,N/A,,Clear,0,2013-05-04 11:35:00
4:55 AM,44.6,44.6,100,30.03,3.0,Calm,Calm,-,N/A,,Clear,0,2013-05-04 11:55:00
5:15 AM,42.8,41.0,93,30.02,7.0,SSE,3.5,-,N/A,,Mostly Cloudy,150,2013-05-04 12:15:00
5:35 AM,42.8,42.8,100,30.02,7.0,Calm,Calm,-,N/A,,Overcast,0,2013-05-04 12:35:00
5:55 AM,44.6,44.6,100,30.02,0.2,Calm,Calm,-,N/A,,Overcast,0,2013-05-04 12:55:00
6:15 AM,44.6,44.6,100,30.02,0.2,Calm,Calm,-,N/A,,Overcast,0,2013-05-04 13:15:00
6:35 AM,44.6,44.6,100,30.01,0.2,Calm,Calm,-,N/A,,Overcast,0,2013-05-04 13:35:00
6:55 AM,44.6,44.6,100,30.01,0.2,Calm,Calm,-,N/A,,Overcast,0,2013-05-04 13:55:00
7:15 AM,44.6,44.6,100,30.01,0.2,Calm,Calm,-,N/A,,Overcast,0,2013-05-04 14:15:00
7:35 AM,46.4,44.6,93,30.01,7.0,Calm,Calm,-,N/A,,Scattered Clouds,0,2013-05-04 14:35:00
7:55 AM,48.2,48.2,100,30.01,7.0,Calm,Calm,-,N/A,,Scattered Clouds,0,2013-05-04 14:55:00
8:15 AM,51.8,50.0,94,30.00,7.0,Calm,Calm,-,N/A,,Partly Cloudy,0,2013-05-04 15:15:00
8:35 AM,51.8,51.8,100,29.99,1.0,Calm,Calm,-,N/A,,Clear,0,2013-05-04 15:35:00
8:55 AM,55.4,51.8,88,29.99,10.0,Calm,Calm,-,N/A,,Clear,0,2013-05-04 15:55:00
9:15 AM,60.8,53.6,77,29.98,8.0,Calm,Calm,-,N/A,,Clear,0,2013-05-04 16:15:00
9:35 AM,64.4,53.6,68,29.98,4.0,Calm,Calm,-,N/A,,Clear,0,2013-05-04 16:35:00
9:55 AM,68.0,48.2,49,29.97,10.0,Calm,Calm,-,N/A,,Clear,0,2013-05-04 16:55:00
10:15 AM,68.0,48.2,49,29.96,10.0,NW,3.5,-,N/A,,Clear,310,2013-05-04 17:15:00
10:35 AM,71.6,46.4,41,29.96,10.0,NW,3.5,-,N/A,,Clear,310,2013-05-04 17:35:00
10:55 AM,73.4,46.4,38,29.95,10.0,NNE,3.5,-,N/A,,Clear,30,2013-05-04 17:55:00
11:15 AM,75.2,44.6,34,29.94,10.0,ESE,6.9,-,N/A,,Clear,110,2013-05-04 18:15:00
11:35 AM,80.6,42.8,26,29.93,10.0,NE,8.1,-,N/A,,Clear,50,2013-05-04 18:35:00
11:55 AM,78.8,41.0,26,29.92,10.0,NE,11.5,18.4,N/A,,Clear,40,2013-05-04 18:55:00
12:15 PM,78.8,42.8,28,29.91,10.0,NNE,16.1,20.7,N/A,,Clear,20,2013-05-04 19:15:00
12:35 PM,80.6,42.8,26,29.90,10.0,NNE,12.7,20.7,N/A,,Clear,30,2013-05-04 19:35:00
1:15 PM,82.4,42.8,25,29.87,10.0,NNW,15.0,20.7,N/A,,Clear,340,2013-05-04 20:15:00
1:35 PM,80.6,42.8,26,29.87,10.0,NNE,12.7,19.6,N/A,,Clear,20,2013-05-04 20:35:00
1:55 PM,82.4,41.0,23,29.86,10.0,NE,12.7,24.2,N/A,,Clear,40,2013-05-04 20:55:00
2:15 PM,78.8,46.4,32,29.85,10.0,NNE,6.9,-,N/A,,Clear,20,2013-05-04 21:15:00
2:35 PM,84.2,39.2,20,29.83,10.0,NNE,12.7,27.6,N/A,,Clear,30,2013-05-04 21:35:00
2:55 PM,80.6,41.0,24,29.83,10.0,NNE,11.5,19.6,N/A,,Clear,20,2013-05-04 21:55:00
3:15 PM,84.2,37.4,19,29.82,10.0,ENE,20.7,27.6,N/A,,Clear,60,2013-05-04 22:15:00
3:35 PM,84.2,37.4,19,29.81,10.0,ENE,17.3,24.2,N/A,,Clear,60,2013-05-04 22:35:00
3:55 PM,78.8,44.6,30,29.80,10.0,NNW,5.8,18.4,N/A,,Clear,340,2013-05-04 22:55:00
4:15 PM,75.2,46.4,36,29.79,10.0,NNW,9.2,-,N/A,,Clear,330,2013-05-04 23:15:00
4:35 PM,77.0,46.4,34,29.78,10.0,North,12.7,17.3,N/A,,Clear,350,2013-05-04 23:35:00
4:55 PM,75.2,46.4,36,29.77,10.0,North,12.7,19.6,N/A,,Clear,360,2013-05-04 23:55:00
5:15 PM,78.8,44.6,30,29.77,10.0,North,11.5,-,N/A,,Clear,360,2013-05-05 00:15:00
5:35 PM,73.4,44.6,36,29.77,10.0,NNW,13.8,-,N/A,,Clear,330,2013-05-05 00:35:00
5:55 PM,69.8,46.4,43,29.76,10.0,NNW,16.1,-,N/A,,Clear,330,2013-05-05 00:55:00
6:15 PM,71.6,44.6,38,29.76,10.0,NNW,12.7,19.6,N/A,,Clear,330,2013-05-05 01:15:00
6:35 PM,69.8,44.6,40,29.75,10.0,NNW,12.7,-,N/A,,Clear,340,2013-05-05 01:35:00
6:55 PM,68.0,46.4,46,29.75,10.0,NNW,11.5,16.1,N/A,,Clear,330,2013-05-05 01:55:00
7:15 PM,73.4,41.0,31,29.75,10.0,NNE,11.5,16.1,N/A,,Partly Cloudy,30,2013-05-05 02:15:00
7:35 PM,78.8,35.6,21,29.75,10.0,NNE,16.1,21.9,N/A,,Clear,30,2013-05-05 02:35:00
7:55 PM,73.4,42.8,33,29.76,10.0,NE,9.2,-,N/A,,Clear,40,2013-05-05 02:55:00
8:15 PM,75.2,39.2,27,29.76,10.0,NNE,9.2,-,N/A,,Clear,30,2013-05-05 03:15:00
8:35 PM,75.2,37.4,25,29.77,10.0,North,9.2,-,N/A,,Clear,10,2013-05-05 03:35:00
8:55 PM,68.0,42.8,40,29.77,10.0,North,5.8,-,N/A,,Clear,360,2013-05-05 03:55:00
9:15 PM,69.8,39.2,33,29.78,9.0,NNE,4.6,-,N/A,,Clear,20,2013-05-05 04:15:00
9:35 PM,71.6,39.2,31,29.78,10.0,NE,8.1,-,N/A,,Clear,40,2013-05-05 04:35:00
9:55 PM,69.8,39.2,33,29.78,10.0,NNE,8.1,-,N/A,,Clear,30,2013-05-05 04:55:00
10:15 PM,71.6,37.4,29,29.78,10.0,NNE,9.2,-,N/A,,Clear,30,2013-05-05 05:15:00
10:35 PM,73.4,35.6,25,29.78,10.0,NE,10.4,-,N/A,,Clear,40,2013-05-05 05:35:00
10:55 PM,71.6,35.6,27,29.78,10.0,NE,6.9,-,N/A,,Clear,40,2013-05-05 05:55:00
11:15 PM,71.6,35.6,27,29.78,10.0,NE,8.1,-,N/A,,Clear,40,2013-05-05 06:15:00
11:35 PM,71.6,35.6,27,29.78,10.0,NE,10.4,16.1,N/A,,Clear,40,2013-05-05 06:35:00
11:55 PM,73.4,33.8,23,29.78,10.0,NE,8.1,-,N/A,,Clear,50,2013-05-05 06:55:00